[[{"header":{"parameterUnit":"m.s-1","parameterCategory":1,"la1":30.2991,"la2":30.254,"lo1":-89.0895,"lo2":-89.0444,"dy":0.0017,"dx":0.0017,"nx":28,"ny":28,"refTime":"2025-06-23T03:00:00:Z","depth":0,"parameterNumber":2,"parameterNumberName":"U-component_of_WINDS"},"data":[0,0,0,0,0,0,0,0,0,0,0,0,0,0,0,0,0,0,0,0,0,0,0,0,0,0,0,0,0,0,0,0,0,0,0,0,0,0,0,0,0,0,0,0,0,0,0,0,0,0,0,0,0,0,0,0,0,0,-1.3662,-1.3661,0,-1.3585,-1.3584,-1.3583,-1.3515,-1.3514,-1.3513,-1.3513,-1.3433,-1.3432,-1.3431,0,0,0,0,0,0,0,0,0,0,0,0,0,-1.3752,-1.3751,-1.3662,-1.3661,-1.366,-1.3585,-1.3584,-1.3583,-1.3515,-1.3514,-1.3513,-1.3512,-1.3434,-1.3432,-1.3431,0,0,0,0,0,0,0,0,0,0,0,0,0,-1.3698,-1.3751,-1.3662,-1.3617,-1.3612,-1.3585,-1.3584,-1.3582,-1.3515,-1.3514,-1.3513,-1.3512,-1.3434,-1.3432,-1.343,-1.3441,0,0,-1.3424,-1.3423,0,0,0,0,0,0,0,0,-1.3701,-1.3695,-1.3625,-1.362,-1.3615,-1.3558,-1.3586,-1.3535,-1.3516,-1.3552,-1.3513,-1.3511,-1.3476,-1.347,-1.3458,-1.3437,-1.3434,-1.3424,-1.3423,-1.3422,-1.3421,0,0,0,0,0,0,0,-1.3705,-1.3698,-1.3631,-1.3624,-1.3618,-1.3602,-1.3592,-1.3576,-1.3522,-1.3549,-1.3544,-1.3536,-1.3473,-1.3461,-1.3456,-1.3433,-1.3424,-1.3422,-1.3421,-1.342,-1.3419,-1.342,0,0,0,0,0,0,-1.3716,-1.3701,-1.3634,-1.3629,-1.3656,-1.3601,-1.3591,-1.3578,-1.3521,-1.3512,-1.3537,-1.3533,-1.3465,-1.3459,-1.3453,-1.3463,-1.3422,-1.342,-1.3419,-1.3418,-1.3419,-1.3421,0,0,0,0,0,0,-1.3718,-1.371,-1.3637,-1.3664,-1.3653,-1.3601,-1.3586,-1.3577,-1.3564,-1.3512,-1.3502,-1.3534,-1.3463,-1.3456,-1.3445,-1.3459,-1.3419,-1.3417,-1.3416,-1.3418,-1.342,-1.3482,0,0,0,0,0,0,-1.3721,-1.3711,-1.3714,-1.3664,-1.3652,-1.363,-1.3587,-1.3576,-1.3561,-1.3555,-1.3507,-1.3498,-1.3462,-1.3449,-1.3443,-1.3455,-1.3415,-1.3415,-1.3417,-1.3419,-1.3478,-1.3486,-1.3492,0,0,0,0,0,-1.3724,-1.3734,-1.3715,-1.3707,-1.3654,-1.363,-1.3623,-1.3582,-1.3562,-1.3565,-1.3532,-1.35,-1.3459,-1.3448,-1.3441,-1.3453,-1.3414,-1.3417,-1.3419,-1.3475,-1.3484,-1.3492,0,0,0,0,0,0,-1.3786,-1.3727,-1.3704,-1.3698,-1.367,-1.3619,-1.3621,-1.3592,-1.3569,-1.3564,-1.3514,-1.3504,-1.3499,-1.3475,-1.3464,-1.3462,-1.3432,-1.3434,-1.3477,-1.3485,-1.3492,-1.3497,-1.3414,0,0,0,0,0,-1.3799,-1.3785,-1.3734,-1.3733,-1.372,-1.3674,-1.3662,-1.3633,-1.3601,-1.3589,-1.3555,-1.3526,-1.3507,-1.3495,-1.3474,-1.3476,-1.3465,-1.3481,-1.3488,-1.3493,-1.3495,-1.3496,-1.3503,-1.343,-1.343,-1.343,0,0,-1.3826,-1.3792,-1.3785,-1.3745,-1.372,-1.3706,-1.3664,-1.3651,-1.3641,-1.3586,-1.3574,-1.3549,-1.3514,-1.351,-1.3506,-1.3489,-1.3513,-1.3497,-1.3502,-1.35,-1.3499,-1.3506,-1.3513,-1.3432,-1.3431,-1.3431,0,0,-1.3867,-1.384,-1.3837,-1.3813,-1.3776,-1.3745,-1.3745,-1.3699,-1.368,-1.3668,-1.3627,-1.3615,-1.3583,-1.356,-1.3544,-1.3581,-1.355,-1.3576,-1.361,-1.3612,-1.3618,-1.3622,-1.3636,-1.3642,-1.3578,-1.3578,-1.3578,0,-1.3905,-1.3882,-1.3839,-1.383,-1.3814,-1.3766,-1.3764,-1.3743,-1.3701,-1.3691,-1.3674,-1.3634,-1.3606,-1.3597,-1.3607,-1.3595,-1.3594,-1.358,-1.362,-1.3625,-1.3629,-1.3641,-1.3647,-1.3581,-1.3581,-1.358,-1.358,0,-1.3931,-1.3917,-1.3919,-1.3881,-1.3866,-1.386,-1.3817,-1.3807,-1.378,-1.3752,-1.3741,-1.3707,-1.368,-1.3676,-1.3649,-1.3663,-1.3654,-1.363,-1.3598,-1.364,-1.3651,-1.3655,-1.3586,-1.3585,-1.3584,-1.3583,0,0,-1.4006,-1.3947,-1.3948,-1.3931,-1.3888,-1.3876,-1.387,-1.3844,-1.3836,-1.381,-1.3804,-1.3779,-1.3757,-1.3739,-1.371,-1.3711,-1.3744,-1.3686,-1.3684,-1.3698,-1.376,-1.3778,-1.3784,-1.3725,-1.3725,-1.3726,-1.3763,0,-1.4041,-1.4025,-1.3987,-1.3983,-1.3971,-1.3927,-1.3921,-1.3895,-1.3869,-1.3855,-1.3827,-1.381,-1.3782,-1.3771,-1.377,-1.374,-1.3756,-1.3737,-1.3718,-1.3718,-1.3728,-1.379,-1.3809,-1.3845,-1.3767,-1.3767,-1.3768,0,-1.4077,-1.4055,-1.405,-1.401,-1.4003,-1.3999,-1.3973,-1.396,-1.3931,-1.3912,-1.3894,-1.3862,-1.3854,-1.3827,-1.3815,-1.3804,-1.3794,-1.3779,-1.3779,-1.3775,-1.3745,-1.3787,-1.3855,-1.3861,-1.3774,-1.3774,-1.3773,0,-1.4134,-1.4102,-1.4096,-1.4082,-1.4035,-1.4034,-1.4014,-1.3983,-1.3971,-1.3949,-1.3941,-1.3918,-1.3906,-1.389,-1.3854,-1.3837,-1.3847,-1.3816,-1.3832,-1.3833,-1.3834,-1.3835,-1.3902,-1.383,-1.383,-1.383,-1.3829,0,-1.4175,-1.4174,-1.4121,-1.4116,-1.4115,-1.4073,-1.4072,-1.4049,-1.4023,-1.4014,-1.3975,-1.3968,-1.3921,-1.3909,-1.3881,-1.3876,-1.3871,-1.3856,-1.3849,-1.3859,-1.3861,-1.3852,-1.3848,-1.3831,-1.3831,-1.383,-1.383,0,-1.4237,-1.4201,-1.4191,-1.4148,-1.4137,-1.4138,-1.4102,-1.4097,-1.4071,-1.406,-1.4056,-1.4014,-1.3998,-1.3961,-1.3935,-1.3916,-1.3919,-1.3906,-1.3929,-1.3924,-1.3942,-1.3941,-1.4005,-1.4012,-1.3936,-1.3937,-1.3938,0,-1.4265,-1.4263,-1.4221,-1.4213,-1.4195,-1.4182,-1.417,-1.413,-1.4119,-1.4087,-1.4086,-1.4068,-1.405,-1.4028,-1.3995,-1.3976,-1.3961,-1.3985,-1.3958,-1.397,-1.3962,-1.3962,-1.3963,-1.3991,-1.3992,-1.3993,-1.3993,0,-1.432,-1.4303,-1.4286,-1.4265,-1.4251,-1.4232,-1.4211,-1.4207,-1.4162,-1.4152,-1.4136,-1.4123,-1.4097,-1.408,-1.4056,-1.4037,-1.4008,-1.4003,-1.4005,-1.4016,-1.403,-1.4023,-1.3945,-1.4001,-1.4,-1.3999,-1.3999,-1.3999,-1.4365,-1.4362,-1.4333,-1.4317,-1.4297,-1.4279,-1.4273,-1.4247,-1.4232,-1.4209,-1.4187,-1.4173,-1.4146,-1.4111,-1.4095,-1.4084,-1.4069,-1.4073,-1.4074,-1.4075,-1.408,-1.4032,-1.408,-1.4079,-1.4079,-1.4079,-1.4079,0,-1.4418,-1.4398,-1.4384,-1.4356,-1.4344,-1.4319,-1.4295,-1.4287,-1.4275,-1.4253,-1.4237,-1.422,-1.4204,-1.4172,-1.4153,-1.4151,-1.4137,-1.4147,-1.4146,-1.4143,-1.4094,-1.4094,-1.4158,-1.4158,-1.4158,-1.4158,-1.4158,-1.4158,-1.4444,-1.4439,-1.4419,-1.4404,-1.4384,-1.437,-1.4359,-1.4343,-1.4325,-1.4307,-1.4294,-1.4273,-1.4247,-1.4227,-1.4211,-1.4202,-1.4197,-1.4211,-1.4198,-1.4153,-1.4146,-1.4139,-1.4138,-1.4211,-1.4211,-1.4247,-1.4248,-1.4248]},{"header":{"parameterUnit":"m.s-1","parameterCategory":1,"la1":30.2991,"la2":30.254,"lo1":-89.0895,"lo2":-89.0444,"dy":0.0017,"dx":0.0017,"nx":28,"ny":28,"refTime":"2025-06-23T03:00:00:Z","depth":0,"parameterNumber":3,"parameterNumberName":"V-component_of_WINDS"},"data":[0,0,0,0,0,0,0,0,0,0,0,0,0,0,0,0,0,0,0,0,0,0,0,0,0,0,0,0,0,0,0,0,0,0,0,0,0,0,0,0,0,0,0,0,0,0,0,0,0,0,0,0,0,0,0,0,0,0,2.8963,2.8963,0,2.8953,2.8952,2.8952,2.8992,2.8993,2.8995,2.8996,2.898,2.8978,2.8977,0,0,0,0,0,0,0,0,0,0,0,0,0,2.9013,2.9012,2.8963,2.8963,2.8963,2.8953,2.8952,2.8952,2.8992,2.8994,2.8995,2.8996,2.898,2.8979,2.8977,0,0,0,0,0,0,0,0,0,0,0,0,0,2.8996,2.9012,2.8963,2.8982,2.8983,2.8953,2.8952,2.8952,2.8992,2.8994,2.8995,2.8997,2.8981,2.8979,2.8976,2.8926,0,0,2.8969,2.8968,0,0,0,0,0,0,0,0,2.8997,2.8994,2.8979,2.898,2.8982,2.8976,2.8964,2.8943,2.8991,2.8988,2.8996,2.8998,2.8977,2.8975,2.8969,2.8925,2.8925,2.8969,2.8968,2.8967,2.8966,0,0,0,0,0,0,0,2.8998,2.8995,2.8959,2.8979,2.898,2.8989,2.8988,2.8961,2.8972,2.8989,2.8992,2.899,2.8978,2.8971,2.8969,2.8924,2.8969,2.8967,2.8966,2.8965,2.8839,2.8837,0,0,0,0,0,0,2.8997,2.8995,2.8959,2.8958,2.8994,2.8987,2.8986,2.8976,2.8973,2.8974,2.8989,2.8992,2.8974,2.8971,2.8968,2.8909,2.8967,2.8965,2.8963,2.8841,2.8839,2.8837,0,0,0,0,0,0,2.8998,2.8994,2.8959,2.8978,2.8974,2.8984,2.8972,2.8975,2.8968,2.8973,2.8975,2.898,2.8975,2.8972,2.8937,2.8909,2.8964,2.8961,2.8844,2.8841,2.8838,2.879,0,0,0,0,0,0,2.9,2.8994,2.8976,2.8977,2.8973,2.8929,2.897,2.8973,2.8964,2.8969,2.8965,2.8966,2.8976,2.894,2.8934,2.8907,2.896,2.8846,2.8842,2.8839,2.8794,2.8786,2.8779,0,0,0,0,0,2.9001,2.8961,2.8975,2.897,2.8951,2.8928,2.8925,2.8939,2.8962,2.8943,2.8946,2.8966,2.8913,2.8936,2.893,2.8902,2.8848,2.8843,2.8839,2.8798,2.8788,2.8779,0,0,0,0,0,0,2.8954,2.8962,2.8976,2.8936,2.8931,2.8934,2.8911,2.8928,2.8915,2.892,2.8937,2.8935,2.8897,2.8896,2.8921,2.8853,2.8884,2.8878,2.8855,2.8845,2.8838,2.8839,2.8958,0,0,0,0,0,2.894,2.8922,2.8929,2.8893,2.889,2.8901,2.8891,2.8903,2.8898,2.8895,2.8896,2.8889,2.8871,2.8858,2.8842,2.8795,2.8794,2.8772,2.8765,2.8758,2.8753,2.8728,2.8718,2.8822,2.8822,2.8823,0,0,2.8909,2.8911,2.8898,2.8883,2.8881,2.8861,2.8898,2.8875,2.886,2.8891,2.8859,2.8859,2.8852,2.8811,2.8793,2.8809,2.8724,2.8753,2.8748,2.8746,2.8722,2.8713,2.8704,2.8819,2.882,2.882,0,0,2.8842,2.8842,2.8812,2.8809,2.8806,2.8813,2.8806,2.8807,2.8809,2.8777,2.88,2.8782,2.875,2.8744,2.8737,2.8669,2.8687,2.8663,2.8623,2.8599,2.859,2.8583,2.8559,2.855,2.8658,2.8658,2.8658,0,2.8803,2.8775,2.8794,2.877,2.8762,2.8792,2.8761,2.8757,2.8747,2.874,2.8759,2.8721,2.8718,2.8676,2.866,2.8653,2.8645,2.8663,2.8591,2.8583,2.8577,2.8554,2.8544,2.8655,2.8655,2.8656,2.8656,0,2.8728,2.8708,2.8684,2.8676,2.8666,2.8638,2.8652,2.8639,2.8652,2.8658,2.8625,2.8623,2.8607,2.8598,2.8609,2.8558,2.8568,2.8588,2.862,2.8564,2.8542,2.8534,2.8651,2.8652,2.8653,2.8654,0,0,2.863,2.8634,2.8625,2.8622,2.862,2.8605,2.8578,2.8565,2.8553,2.8546,2.8523,2.8497,2.8516,2.8508,2.8519,2.8498,2.8444,2.8521,2.8521,2.8506,2.8386,2.8371,2.836,2.8456,2.8454,2.8453,2.8387,0,2.8564,2.8521,2.8537,2.8492,2.8474,2.8502,2.8479,2.8475,2.8479,2.8463,2.8468,2.8449,2.8476,2.8471,2.8451,2.8455,2.842,2.846,2.8434,2.8433,2.8434,2.8349,2.8332,2.827,2.8379,2.8377,2.8376,0,2.8481,2.8473,2.8426,2.8429,2.8422,2.8401,2.839,2.8375,2.837,2.8375,2.8367,2.8383,2.8356,2.8389,2.8352,2.8378,2.8369,2.8369,2.8367,2.8364,2.8401,2.8343,2.825,2.8241,2.8363,2.8364,2.8365,0,2.8414,2.8391,2.836,2.8357,2.8359,2.8344,2.8344,2.8342,2.8332,2.8322,2.8316,2.8302,2.8294,2.8283,2.8294,2.8317,2.8255,2.8289,2.8257,2.8257,2.8242,2.8243,2.8146,2.8237,2.8237,2.8237,2.8238,0,2.8338,2.8309,2.833,2.8311,2.8279,2.8298,2.8264,2.8267,2.8265,2.8246,2.8269,2.8251,2.8268,2.825,2.8259,2.8227,2.8223,2.8225,2.8228,2.8223,2.8223,2.8216,2.8221,2.8235,2.8235,2.8236,2.8236,0,2.8258,2.8271,2.8239,2.8245,2.8246,2.8221,2.8225,2.8207,2.8214,2.819,2.8186,2.8196,2.8177,2.8188,2.8167,2.8173,2.8131,2.814,2.8133,2.8135,2.8103,2.8106,2.7998,2.7985,2.8085,2.8084,2.8083,0,2.8208,2.8187,2.819,2.818,2.8179,2.8163,2.8154,2.8172,2.8161,2.8156,2.8138,2.8122,2.8109,2.8077,2.8082,2.8067,2.8075,2.8038,2.8072,2.8068,2.8074,2.8075,2.8072,2.8031,2.803,2.8029,2.8028,0,2.8119,2.8127,2.8115,2.8105,2.8094,2.8087,2.8081,2.8071,2.8089,2.8076,2.8058,2.8048,2.8029,2.8012,2.7999,2.7997,2.8015,2.8017,2.8009,2.8003,2.8,2.8001,2.8114,2.8019,2.802,2.8021,2.8021,2.8022,2.8052,2.8035,2.8035,2.802,2.8018,2.8012,2.7996,2.8002,2.7988,2.7974,2.7985,2.7964,2.796,2.7945,2.7941,2.7924,2.7938,2.7926,2.7923,2.792,2.7916,2.8004,2.7921,2.7922,2.7922,2.7922,2.7922,0,2.7964,2.7967,2.7953,2.7945,2.7933,2.7953,2.7948,2.7936,2.7918,2.7914,2.7902,2.7881,2.7865,2.7869,2.7854,2.7839,2.7846,2.7834,2.7835,2.7834,2.7904,2.7912,2.7828,2.7828,2.7828,2.7828,2.7828,2.7828,2.7917,2.7888,2.7896,2.7866,2.7868,2.7848,2.7844,2.7838,2.7835,2.7811,2.7799,2.7802,2.7801,2.7787,2.7772,2.7774,2.7767,2.7752,2.7756,2.782,2.7829,2.7838,2.7846,2.775,2.775,2.7688,2.7688,2.7687]}]]